Date Time,Air Temp,Sky Temp,Clarity,Light Level,Rain Sensor,Readings
2021-05-30 00:00:03,23.5,-9.6,33.2,0.0,-27.1,112
2021-05-30 00:05:05,23.4,-9.6,33.0,0.0,-27.2,111
2021-05-30 00:10:05,23.1,-9.6,32.7,0.0,-27.1,112
2021-05-30 00:15:05,23.3,-9.7,33.0,0.0,-27.2,112
2021-05-30 00:20:05,23.3,-9.7,33.0,0.0,-27.4,111
2021-05-30 00:25:05,23.3,-9.7,32.9,0.0,-27.3,112
2021-05-30 00:30:05,23.2,-9.8,33.1,0.0,-27.4,112
2021-05-30 00:35:05,23.2,-9.9,33.1,0.0,-27.4,112
2021-05-30 00:40:05,23.2,-10.0,33.2,0.0,-27.5,113
2021-05-30 00:45:05,23.2,-10.0,33.2,0.0,-27.7,112
2021-05-30 00:50:05,22.8,-10.0,32.8,0.0,-27.7,112
2021-05-30 00:55:05,22.8,-10.2,33.0,0.0,-27.7,112
2021-05-30 01:00:05,22.9,-10.2,33.1,0.0,-27.9,112
2021-05-30 01:05:05,22.9,-10.2,33.1,0.0,-28.0,112
2021-05-30 01:10:05,22.5,-10.3,32.8,0.0,-27.9,112
2021-05-30 01:15:05,22.8,-10.5,33.4,0.0,-28.0,112
2021-05-30 01:20:05,22.8,-10.4,33.2,0.0,-28.1,112
2021-05-30 01:25:05,22.8,-10.4,33.2,0.0,-28.2,112
2021-05-30 01:30:05,22.8,-10.4,33.2,0.0,-28.2,112
2021-05-30 01:35:05,22.7,-10.7,33.4,0.0,-28.3,112
2021-05-30 01:40:05,22.5,-10.8,33.3,0.0,-28.3,111
2021-05-30 01:45:05,22.5,-10.9,33.3,0.0,-28.3,112
2021-05-30 01:50:05,22.4,-11.0,33.4,0.0,-28.3,111
2021-05-30 01:55:05,22.3,-11.2,33.5,0.0,-28.5,112
2021-05-30 02:00:05,22.4,-11.2,33.5,0.0,-28.6,112
2021-05-30 02:05:05,22.4,-11.2,33.6,0.0,-28.7,111
2021-05-30 02:10:05,22.3,-11.3,33.7,0.0,-28.8,112
2021-05-30 02:15:05,22.3,-11.1,33.4,0.0,-28.7,111
2021-05-30 02:20:05,22.4,-10.5,32.9,0.0,-28.6,112
2021-05-30 02:25:05,22.4,-10.5,32.9,0.0,-28.6,111
2021-05-30 02:30:05,22.3,-10.6,32.9,0.0,-28.6,112
2021-05-30 02:35:05,22.3,-11.0,33.3,0.0,-28.8,112
2021-05-30 02:40:05,22.2,-11.0,33.2,0.0,-28.7,111
2021-05-30 02:45:05,22.0,-11.4,33.4,0.0,-28.8,112
2021-05-30 02:50:05,21.8,-11.7,33.4,0.0,-28.8,110
2021-05-30 02:55:05,21.6,-11.6,33.3,0.0,-28.7,111
2021-05-30 03:00:05,21.5,-11.7,33.3,0.0,-28.7,111
2021-05-30 03:05:05,21.4,-11.5,32.9,0.0,-28.7,111
2021-05-30 03:10:05,21.5,-11.5,33.0,0.0,-28.7,111
2021-05-30 03:15:05,21.5,-11.5,33.0,0.0,-28.8,111
2021-05-30 03:20:05,21.6,-11.5,33.2,0.0,-28.9,111
2021-05-30 03:25:05,21.6,-11.7,33.3,0.0,-29.1,112
2021-05-30 03:30:05,21.6,-11.9,33.4,0.0,-29.2,111
2021-05-30 03:35:05,21.5,-12.0,33.5,0.0,-29.3,110
2021-05-30 03:40:05,21.4,-12.1,33.5,0.1,-29.3,112
2021-05-30 03:45:05,21.4,-12.3,33.6,0.2,-29.3,111
2021-05-30 03:50:05,21.3,-12.4,33.7,0.3,-29.4,111
2021-05-30 03:55:05,21.2,-12.5,33.8,0.5,-29.5,111
2021-05-30 04:00:05,21.2,-12.5,33.7,0.8,-29.5,112
2021-05-30 04:05:05,21.2,-12.6,33.7,1.3,-29.6,111
2021-05-30 04:10:05,21.2,-12.7,33.8,2.1,-29.7,111
2021-05-30 04:15:05,21.1,-12.6,33.8,3.6,-29.7,112
2021-05-30 04:20:05,21.1,-12.7,33.8,6.0,-29.8,111
2021-05-30 04:25:05,21.1,-12.6,33.7,9.4,-30.0,112
2021-05-30 04:30:05,21.1,-12.6,33.8,13.8,-30.1,111
2021-05-30 04:35:05,21.1,-12.6,33.7,18.5,-30.1,111
2021-05-30 04:40:05,21.1,-12.8,33.8,22.6,-30.2,112
2021-05-30 04:45:05,21.1,-12.8,33.9,25.7,-30.3,111
2021-05-30 04:50:05,21.1,-12.6,33.7,27.8,-30.3,111
2021-05-30 04:55:05,21.1,-12.5,33.6,29.2,-30.3,111
2021-05-30 05:00:05,21.1,-12.5,33.6,30.1,-30.3,112
2021-05-30 05:05:05,21.0,-12.5,33.5,30.7,-30.3,111
2021-05-30 05:10:05,21.0,-12.7,33.7,31.1,-30.5,111
2021-05-30 05:15:05,21.1,-12.7,33.8,31.4,-30.6,111
2021-05-30 05:20:05,21.2,-12.7,33.9,31.5,-30.7,112
2021-05-30 05:25:05,21.3,-12.9,34.2,31.7,-30.8,112
2021-05-30 05:30:05,21.5,-12.8,34.3,31.8,-30.7,111
2021-05-30 05:35:05,21.6,-12.8,34.4,31.9,-30.7,112
2021-05-30 05:40:05,21.8,-12.4,34.1,31.9,-30.7,111
2021-05-30 05:45:05,21.9,-12.6,34.5,32.0,-30.5,112
2021-05-30 05:50:05,22.0,-12.7,34.7,32.0,-30.4,111
2021-05-30 05:55:05,22.0,-12.6,34.6,32.0,-30.3,111
2021-05-30 06:00:05,22.1,-12.4,34.6,32.1,-30.3,111
2021-05-30 06:05:03,22.4,-12.8,35.3,32.1,-30.1,42
2021-05-30 06:10:03,22.3,-13.4,35.7,32.1,-30.2,111
2021-05-30 06:15:03,21.9,-13.9,35.7,32.1,-30.3,112
2021-05-30 06:20:03,21.3,-13.1,34.4,32.2,-30.8,111
2021-05-30 06:25:03,21.1,-10.7,31.8,32.2,-30.9,112
2021-05-30 06:30:03,20.9,-5.9,26.9,32.3,-30.8,112
2021-05-30 06:35:03,21.0,-2.2,23.2,32.3,-30.8,111
2021-05-30 06:40:03,20.6,-0.3,20.8,32.3,-30.8,112
2021-05-30 06:45:03,18.7,3.0,15.7,32.3,-30.5,111
2021-05-30 06:50:03,17.3,3.8,13.5,32.4,-30.6,112
2021-05-30 06:55:03,17.0,5.1,11.9,32.4,-30.5,111
2021-05-30 07:00:03,17.0,5.9,11.1,32.4,-30.5,112
2021-05-30 07:05:03,17.2,6.2,10.9,32.4,-30.4,112
2021-05-30 07:10:03,17.4,4.6,12.8,32.4,-30.5,111
2021-05-30 07:15:03,17.4,4.6,12.8,32.4,-30.5,112
2021-05-30 07:20:03,17.4,4.3,13.1,32.4,-30.4,112
2021-05-30 07:25:03,17.5,3.3,14.2,32.4,-30.5,111
2021-05-30 07:30:03,17.4,2.1,15.3,32.4,-30.6,111
2021-05-30 07:35:03,17.3,0.7,16.5,32.4,-30.6,111
2021-05-30 07:40:03,17.2,2.3,15.0,32.4,-30.4,111
2021-05-30 07:45:03,17.6,1.0,16.6,32.4,-30.5,112
2021-05-30 07:50:03,17.9,2.5,15.5,32.5,-30.4,111
2021-05-30 07:55:03,18.6,0.0,18.5,32.5,-30.3,112
2021-05-30 08:00:03,20.8,-4.1,24.9,32.4,-30.5,111
2021-05-30 08:05:03,22.5,-7.9,30.4,32.4,-30.2,112
2021-05-30 08:10:03,23.2,-11.0,34.1,32.3,-30.0,112
2021-05-30 08:15:03,23.4,-12.3,35.7,32.3,-30.2,111
2021-05-30 08:20:03,23.6,-12.3,35.9,32.3,-30.2,111
2021-05-30 08:25:03,23.8,-12.3,36.1,32.3,-30.2,112
2021-05-30 08:30:03,23.9,-11.9,35.8,32.3,-30.1,111
2021-05-30 08:35:03,24.1,-12.3,36.4,32.3,-30.2,111
2021-05-30 08:40:03,24.1,-12.1,36.2,32.3,-30.2,112
2021-05-30 08:45:03,24.0,-11.7,35.7,32.3,-30.1,111
2021-05-30 08:50:03,24.0,-12.0,36.0,32.3,-30.1,112
2021-05-30 08:55:03,23.8,-11.9,35.7,32.3,-30.0,111
2021-05-30 09:00:03,23.9,-11.3,35.2,32.3,-30.0,111
2021-05-30 09:05:03,23.9,-11.4,35.3,32.3,-30.0,112
2021-05-30 09:10:03,24.0,-10.8,34.8,32.3,-29.9,112
2021-05-30 09:15:03,24.4,-10.4,34.8,32.4,-29.9,112
2021-05-30 09:20:03,24.9,-10.3,35.2,32.4,-29.9,112
2021-05-30 09:25:03,25.5,-9.4,35.0,32.4,-30.0,111
2021-05-30 09:30:03,26.1,-9.6,35.7,32.4,-30.1,112
2021-05-30 09:35:03,26.6,-9.1,35.7,32.4,-29.7,112
2021-05-30 09:40:03,26.8,-8.9,35.7,32.4,-29.7,112
2021-05-30 09:45:03,27.2,-8.0,35.2,32.5,-29.7,112
2021-05-30 09:50:03,27.5,-8.0,35.5,32.5,-29.8,111
2021-05-30 09:55:03,27.7,-7.8,35.5,32.5,-29.7,112
2021-05-30 10:00:03,27.9,-7.6,35.5,32.5,-29.7,111
2021-05-30 10:05:03,28.2,-7.1,35.2,32.5,-29.7,112
2021-05-30 10:10:03,28.4,-7.5,35.9,32.5,-29.5,112
2021-05-30 10:15:03,28.4,-7.5,35.8,32.5,-29.5,111
2021-05-30 10:20:03,28.3,-7.4,35.6,32.5,-29.5,112
2021-05-30 10:25:03,28.3,-6.6,34.9,32.5,-29.3,112
2021-05-30 10:30:03,28.5,-6.0,34.5,32.5,-29.3,112
2021-05-30 10:35:03,28.7,-5.4,34.2,32.5,-29.3,111
2021-05-30 10:40:03,29.3,-5.9,35.3,32.5,-29.7,112
2021-05-30 10:45:03,29.6,-5.3,34.9,32.5,-30.2,112
2021-05-30 10:50:03,29.9,-5.0,34.8,32.6,-30.8,111
2021-05-30 10:55:03,29.9,-5.4,35.3,32.5,-30.8,111
2021-05-30 11:00:03,29.9,-4.1,34.0,32.6,-30.6,112
2021-05-30 11:05:03,29.9,-5.5,35.4,32.6,-30.7,112
2021-05-30 11:10:03,29.7,-3.9,33.6,32.6,-30.3,111
2021-05-30 11:15:03,29.8,-4.9,34.8,32.6,-30.3,112
2021-05-30 11:20:03,30.0,-3.8,33.8,32.6,-30.4,111
2021-05-30 11:25:03,30.6,-3.0,33.6,32.6,-30.5,112
2021-05-30 11:30:03,31.1,-2.8,33.9,32.6,-30.6,112
2021-05-30 11:35:03,31.3,-3.0,34.3,32.6,-30.5,112
2021-05-30 11:40:03,31.2,-3.5,34.7,32.6,-30.5,111
2021-05-30 11:45:03,31.1,-2.9,34.0,32.6,-30.4,112
2021-05-30 11:50:03,31.2,-2.2,33.4,32.6,-30.4,112
2021-05-30 11:55:03,31.6,-1.5,33.1,32.6,-30.2,112
2021-05-30 12:00:03,32.2,0.1,32.1,32.6,-29.8,111
2021-05-30 12:05:03,33.1,0.2,32.9,32.6,-29.2,112
2021-05-30 12:10:03,33.8,0.1,33.7,32.6,-28.7,111
2021-05-30 12:15:03,33.8,0.7,33.1,32.6,-28.7,111
2021-05-30 12:20:03,34.0,1.5,32.5,32.6,-28.4,111
2021-05-30 12:25:03,34.2,1.5,32.6,32.6,-28.3,112
2021-05-30 12:30:03,34.4,1.6,32.7,32.6,-28.0,110
2021-05-30 12:35:03,34.3,1.8,32.6,32.6,-28.1,112
2021-05-30 12:40:03,34.2,2.0,32.2,32.6,-28.1,111
2021-05-30 12:45:03,34.5,3.6,30.9,32.6,-27.7,111
2021-05-30 12:50:03,35.4,3.0,32.3,32.6,-27.2,111
2021-05-30 12:55:03,35.8,3.8,32.0,32.6,-26.8,112
2021-05-30 13:00:03,36.2,3.6,32.7,32.6,-26.4,112
2021-05-30 13:05:03,36.4,3.5,32.9,32.6,-26.4,111
2021-05-30 13:10:03,36.4,3.8,32.6,32.6,-26.4,111
2021-05-30 13:15:03,36.6,4.3,32.3,32.6,-26.1,112
2021-05-30 13:20:03,37.2,5.1,32.1,32.6,-25.8,111
2021-05-30 13:25:03,37.8,4.3,33.4,32.6,-25.4,112
2021-05-30 13:30:03,37.8,2.6,35.1,32.6,-25.5,111
2021-05-30 13:35:03,36.9,3.2,33.8,32.6,-25.9,112
2021-05-30 13:40:03,36.2,3.8,32.4,32.6,-26.2,111
2021-05-30 13:45:03,36.5,5.8,30.7,32.6,-25.9,111
2021-05-30 13:50:03,36.7,4.3,32.4,32.6,-25.9,112
2021-05-30 13:55:03,36.1,4.8,31.3,32.6,-26.0,112
2021-05-30 14:00:03,35.9,6.1,29.8,32.6,-26.2,111
2021-05-30 14:05:03,36.4,6.6,29.7,32.6,-25.8,112
2021-05-30 14:10:03,36.6,6.3,30.2,32.6,-25.8,111
2021-05-30 14:15:03,36.8,7.0,29.8,32.6,-25.6,112
2021-05-30 14:20:03,37.5,7.7,29.9,32.6,-25.2,111
2021-05-30 14:25:03,38.0,6.9,31.2,32.6,-24.8,112
2021-05-30 14:30:03,38.2,7.3,30.9,32.6,-24.6,111
2021-05-30 14:35:03,38.3,7.0,31.3,32.6,-24.6,111
2021-05-30 14:40:03,38.3,6.7,31.7,32.6,-24.5,111
2021-05-30 14:45:03,37.4,5.4,31.9,32.6,-25.1,112
2021-05-30 14:50:03,37.0,7.9,29.0,32.6,-25.2,111
2021-05-30 14:55:03,37.5,7.9,29.7,32.6,-24.8,112
2021-05-30 15:00:03,37.9,7.4,30.5,32.6,-24.8,111
2021-05-30 15:05:03,37.6,6.3,31.3,32.6,-24.9,112
2021-05-30 15:10:03,36.5,6.2,30.3,32.6,-25.5,112
2021-05-30 15:15:03,36.6,8.4,28.3,32.6,-25.3,111
2021-05-30 15:20:03,37.7,8.1,29.6,32.6,-24.7,111
2021-05-30 15:25:03,38.0,8.4,29.6,32.6,-24.5,112
2021-05-30 15:30:03,38.1,8.0,30.2,32.6,-24.4,111
2021-05-30 15:35:03,38.3,7.6,30.8,32.6,-24.4,111
2021-05-30 15:40:03,38.3,8.3,30.0,32.6,-24.4,112
2021-05-30 15:45:03,38.4,8.3,30.1,32.6,-24.3,111
2021-05-30 15:50:03,38.4,7.0,31.4,32.6,-24.3,112
2021-05-30 15:55:03,37.3,6.9,30.5,32.6,-24.8,111
2021-05-30 16:00:03,36.7,8.2,28.5,32.6,-24.9,111
2021-05-30 16:05:03,36.6,6.3,30.3,32.6,-25.2,112
2021-05-30 16:10:03,35.8,6.9,28.9,32.6,-25.8,112
2021-05-30 16:15:03,35.9,9.1,26.7,32.6,-25.6,111
2021-05-30 16:20:03,37.2,9.5,27.8,32.6,-24.8,112
2021-05-30 16:25:03,38.3,8.8,29.5,32.6,-24.2,111
2021-05-30 16:30:03,38.2,7.0,31.2,32.6,-24.4,111
2021-05-30 16:35:03,37.1,7.7,29.4,32.6,-24.9,112
2021-05-30 16:40:03,37.0,11.9,25.2,32.6,-24.8,111
2021-05-30 16:45:03,37.2,7.0,30.2,32.5,-25.6,111
2021-05-30 16:50:03,35.0,4.5,30.5,32.5,-26.3,112
2021-05-30 16:55:03,33.6,6.3,27.3,32.6,-26.8,111
2021-05-30 17:00:03,34.5,8.4,26.1,32.6,-26.3,111
2021-05-30 17:05:03,36.2,9.6,26.6,32.6,-25.6,112
2021-05-30 17:10:03,37.0,9.4,27.6,32.6,-25.1,111
2021-05-30 17:15:03,35.8,0.6,35.2,32.5,-26.4,112
2021-05-30 17:20:03,33.6,3.1,30.5,32.6,-26.8,111
2021-05-30 17:25:03,33.8,7.9,25.9,32.6,-26.8,112
2021-05-30 17:30:03,35.2,5.9,29.3,32.6,-26.2,111
2021-05-30 17:35:03,35.5,5.5,30.0,32.6,-26.3,111
2021-05-30 17:40:03,36.0,8.0,27.9,32.6,-25.7,111
2021-05-30 17:45:03,36.6,9.9,26.7,32.6,-25.5,112
2021-05-30 17:50:03,37.0,7.1,29.8,32.5,-26.3,111
2021-05-30 17:55:03,36.0,8.1,27.9,32.5,-26.6,112
2021-05-30 18:00:03,35.3,7.7,27.6,32.6,-26.3,111
2021-05-30 18:05:03,34.8,4.6,30.2,32.5,-26.5,112
2021-05-30 18:10:03,34.3,4.8,29.5,32.6,-26.8,111
2021-05-30 18:15:03,34.2,2.9,31.3,32.5,-26.9,111
2021-05-30 18:20:03,33.4,3.2,30.2,32.5,-27.3,111
2021-05-30 18:25:03,33.4,4.6,28.8,32.6,-27.4,112
2021-05-30 18:30:03,33.5,0.5,33.0,32.5,-27.3,111
2021-05-30 18:35:03,32.5,0.2,32.3,32.5,-27.6,112
2021-05-30 18:40:03,31.6,3.0,28.6,32.6,-27.8,111
2021-05-30 18:45:03,32.5,1.8,30.7,32.6,-27.7,111
2021-05-30 18:50:03,32.6,1.5,31.2,32.6,-27.7,111
2021-05-30 18:55:03,32.8,1.2,31.5,32.6,-27.6,111
2021-05-30 19:00:03,32.6,-0.1,32.7,32.6,-27.7,112
2021-05-30 19:05:03,32.3,0.2,32.2,32.6,-27.9,111
2021-05-30 19:10:03,32.2,-0.4,32.6,32.6,-27.9,112
2021-05-30 19:15:03,31.8,-0.3,32.1,32.5,-28.1,112
2021-05-30 19:20:03,31.7,-1.2,32.9,32.5,-28.3,112
2021-05-30 19:25:03,31.3,-1.2,32.6,32.5,-28.5,111
2021-05-30 19:30:03,31.1,-1.4,32.6,32.5,-28.8,112
2021-05-30 19:35:03,30.8,-1.7,32.5,32.5,-29.0,111
2021-05-30 19:40:03,30.5,-1.7,32.2,32.4,-29.2,112
2021-05-30 19:45:03,30.2,-1.8,32.0,32.4,-29.4,112
2021-05-30 19:50:03,30.0,-1.7,31.7,32.4,-29.7,111
2021-05-30 19:55:03,29.8,-2.0,31.8,32.4,-29.9,112
2021-05-30 20:00:03,29.6,-2.2,31.8,32.3,-30.2,112
2021-05-30 20:05:03,29.3,-2.5,31.8,32.3,-30.4,111
2021-05-30 20:10:03,29.0,-2.6,31.6,32.3,-30.6,111
2021-05-30 20:15:03,28.8,-2.6,31.3,32.2,-30.8,112
2021-05-30 20:20:03,28.6,-2.8,31.4,32.2,-31.0,112
2021-05-30 20:25:03,28.5,-3.2,31.6,32.2,-31.2,112
2021-05-30 20:30:03,28.2,-3.4,31.6,32.1,-31.4,111
2021-05-30 20:35:04,27.9,-3.7,31.6,32.0,-31.6,112
2021-05-30 20:40:04,27.6,-4.0,31.6,31.9,-31.8,112
2021-05-30 20:45:04,27.4,-4.3,31.7,31.8,-32.1,112
2021-05-30 20:50:04,27.1,-5.1,32.2,31.6,-32.3,112
2021-05-30 20:55:04,26.8,-4.9,31.7,31.4,-32.9,111
2021-05-30 21:00:04,26.6,-5.1,31.7,31.1,-33.1,112
2021-05-30 21:05:04,26.4,-4.8,31.3,30.7,-33.3,111
2021-05-30 21:10:04,26.2,-5.1,31.3,30.1,-33.5,112
2021-05-30 21:15:04,25.5,-5.3,30.8,29.2,-33.7,111
2021-05-30 21:20:04,25.7,-5.2,30.9,28.0,-33.8,111
2021-05-30 21:25:04,25.5,-5.2,30.7,26.1,-33.8,112
2021-05-30 21:30:04,25.3,-5.2,30.5,23.4,-33.3,111
2021-05-30 21:35:04,25.2,-5.3,30.5,19.4,-33.3,112
2021-05-30 21:40:04,25.0,-5.7,30.7,14.6,-33.5,111
2021-05-30 21:45:04,24.9,-5.7,30.5,10.1,-33.4,112
2021-05-30 21:50:04,24.8,-5.9,30.8,6.4,-33.7,111
2021-05-30 21:55:04,24.7,-5.9,30.6,3.9,-33.6,112
2021-05-30 22:00:04,24.6,-6.1,30.8,2.3,-33.9,111
2021-05-30 22:05:04,24.5,-6.5,31.0,1.3,-34.1,112
2021-05-30 22:10:04,24.4,-6.9,31.3,0.8,-34.4,112
2021-05-30 22:15:04,24.3,-7.1,31.4,0.4,-34.4,111
2021-05-30 22:20:04,24.2,-7.9,32.1,0.2,-34.9,112
2021-05-30 22:25:04,24.0,-8.4,32.3,0.1,-34.9,112
2021-05-30 22:30:04,23.8,-8.8,32.6,0.0,-34.6,112
2021-05-30 22:35:04,23.7,-9.1,32.8,0.0,-34.5,111
2021-05-30 22:40:04,23.5,-9.3,32.9,0.0,-34.5,111
2021-05-30 22:45:04,23.4,-9.5,32.9,0.0,-34.4,112
2021-05-30 22:50:04,23.3,-9.9,33.2,0.0,-34.3,112
2021-05-30 22:55:04,23.1,-10.7,33.8,0.0,-34.5,112
2021-05-30 23:00:04,22.9,-11.4,34.2,0.0,-34.8,111
2021-05-30 23:05:04,22.7,-11.7,34.5,0.0,-35.1,111
2021-05-30 23:10:04,22.6,-12.1,34.7,0.0,-35.1,111
2021-05-30 23:15:04,22.2,-12.5,34.7,0.0,-35.0,112
2021-05-30 23:20:04,22.3,-12.7,35.0,0.0,-35.1,111
2021-05-30 23:25:04,22.3,-12.7,34.9,0.0,-35.2,111
2021-05-30 23:30:04,22.2,-12.6,34.9,0.0,-35.3,112
2021-05-30 23:35:04,22.2,-12.2,34.4,0.0,-35.1,111
2021-05-30 23:40:04,22.1,-12.0,34.0,0.0,-35.2,112
2021-05-30 23:45:04,22.0,-12.2,34.2,0.0,-35.2,111
2021-05-30 23:50:04,21.9,-12.8,34.7,0.0,-35.5,112
2021-05-30 23:55:04,21.7,-12.6,34.3,0.0,-35.5,111
